Time,TemperatureF,DewpointF,PressureIn,WindDirection,WindDirectionDegrees,WindSpeedMPH,WindSpeedGustMPH,Humidity,HourlyPrecipIn,Conditions,Clouds,dailyrainin,SoftwareType,DateUTC
2014-01-28 00:07:00,21.2,17.7,30.08,ESE,112,2.0,-999.0,86,-99.99,,,0.00,Acu-Link.com,2014-01-28 08:07:00,
2014-01-28 00:22:00,21.2,17.7,30.08,ESE,112,1.6,-999.0,86,-99.99,,,0.00,Acu-Link.com,2014-01-28 08:22:00,
2014-01-28 00:37:00,21.2,17.7,30.08,East,90,2.0,-999.0,86,-99.99,,,0.00,Acu-Link.com,2014-01-28 08:37:00,
2014-01-28 00:52:00,21.2,17.4,30.08,ESE,112,2.7,-999.0,85,-99.99,,,0.00,Acu-Link.com,2014-01-28 08:52:00,
2014-01-28 01:07:00,21.2,17.4,30.09,East,90,2.7,-999.0,85,-99.99,,,0.00,Acu-Link.com,2014-01-28 09:07:00,
2014-01-28 01:22:00,21.2,17.4,30.07,ESE,112,2.7,-999.0,85,-99.99,,,0.00,Acu-Link.com,2014-01-28 09:22:00,
2014-01-28 01:38:00,21.2,17.4,30.08,East,90,2.7,-999.0,85,-99.99,,,0.00,Acu-Link.com,2014-01-28 09:38:00,
2014-01-28 01:53:00,21.2,17.4,30.08,ESE,112,1.6,-999.0,85,-99.99,,,0.00,Acu-Link.com,2014-01-28 09:53:00,
2014-01-28 02:08:00,21.2,17.4,30.08,SE,135,2.0,-999.0,85,-99.99,,,0.00,Acu-Link.com,2014-01-28 10:08:00,
2014-01-28 02:23:00,21.2,17.4,30.08,NE,45,2.0,-999.0,85,-99.99,,,0.00,Acu-Link.com,2014-01-28 10:23:00,
2014-01-28 02:39:00,21.2,17.4,30.08,ESE,112,2.7,-999.0,85,-99.99,,,0.00,Acu-Link.com,2014-01-28 10:39:00,
2014-01-28 02:54:00,21.2,17.1,30.07,ESE,112,2.0,-999.0,84,-99.99,,,0.00,Acu-Link.com,2014-01-28 10:54:00,
2014-01-28 03:09:00,21.2,17.1,30.08,East,90,2.0,-999.0,84,-99.99,,,0.00,Acu-Link.com,2014-01-28 11:09:00,
2014-01-28 03:24:00,21.2,17.1,30.07,ESE,112,3.6,-999.0,84,-99.99,,,0.00,Acu-Link.com,2014-01-28 11:24:00,
2014-01-28 03:39:00,21.2,17.1,30.06,East,90,2.7,-999.0,84,-99.99,,,0.00,Acu-Link.com,2014-01-28 11:39:00,
2014-01-28 03:54:00,21.2,17.1,30.07,East,90,3.1,-999.0,84,-99.99,,,0.00,Acu-Link.com,2014-01-28 11:54:00,
2014-01-28 04:09:00,21.2,16.9,30.07,East,90,3.1,-999.0,83,-99.99,,,0.00,Acu-Link.com,2014-01-28 12:09:00,
2014-01-28 04:24:00,21.2,16.9,30.07,East,90,2.7,-999.0,83,-99.99,,,0.00,Acu-Link.com,2014-01-28 12:24:00,
2014-01-28 04:39:00,21.2,16.9,30.07,ESE,112,2.7,-999.0,83,-99.99,,,0.00,Acu-Link.com,2014-01-28 12:39:00,
2014-01-28 04:54:00,21.2,17.1,30.06,NE,45,2.7,-999.0,84,-99.99,,,0.00,Acu-Link.com,2014-01-28 12:54:00,
2014-01-28 05:10:00,19.4,15.4,30.06,East,90,2.7,-999.0,84,-99.99,,,0.00,Acu-Link.com,2014-01-28 13:10:00,
2014-01-28 05:25:00,19.4,15.4,30.05,ESE,112,2.0,-999.0,84,-99.99,,,0.00,Acu-Link.com,2014-01-28 13:25:00,
2014-01-28 05:40:00,19.4,15.4,30.05,East,90,2.0,-999.0,84,-99.99,,,0.00,Acu-Link.com,2014-01-28 13:40:00,
2014-01-28 05:55:00,19.4,15.4,30.05,East,90,2.7,-999.0,84,-99.99,,,0.00,Acu-Link.com,2014-01-28 13:55:00,
2014-01-28 06:10:00,19.4,15.4,30.04,East,90,2.0,-999.0,84,-99.99,,,0.00,Acu-Link.com,2014-01-28 14:10:00,
2014-01-28 06:25:00,19.4,15.4,30.05,East,90,2.7,-999.0,84,-99.99,,,0.00,Acu-Link.com,2014-01-28 14:25:00,
2014-01-28 06:40:00,19.4,15.4,30.05,ESE,112,2.0,-999.0,84,-99.99,,,0.00,Acu-Link.com,2014-01-28 14:40:00,
2014-01-28 06:55:00,19.4,15.4,30.05,ESE,112,2.7,-999.0,84,-99.99,,,0.00,Acu-Link.com,2014-01-28 14:55:00,
2014-01-28 07:10:00,19.4,15.4,30.04,ESE,112,2.0,-999.0,84,-99.99,,,0.00,Acu-Link.com,2014-01-28 15:10:00,
2014-01-28 07:26:00,19.4,15.4,30.03,ESE,112,2.0,-999.0,84,-99.99,,,0.00,Acu-Link.com,2014-01-28 15:26:00,
2014-01-28 07:41:00,21.2,17.1,30.03,ESE,112,2.7,-999.0,84,-99.99,,,0.00,Acu-Link.com,2014-01-28 15:41:00,
2014-01-28 07:56:00,21.2,17.1,30.03,East,90,2.0,-999.0,84,-99.99,,,0.00,Acu-Link.com,2014-01-28 15:56:00,
2014-01-28 08:11:00,21.2,17.1,30.03,SSE,157,2.7,-999.0,84,-99.99,,,0.00,Acu-Link.com,2014-01-28 16:11:00,
2014-01-28 08:26:00,21.2,16.9,30.03,ESE,112,1.6,-999.0,83,-99.99,,,0.00,Acu-Link.com,2014-01-28 16:26:00,
2014-01-28 08:42:00,21.2,16.6,30.03,ESE,112,2.0,-999.0,82,-99.99,,,0.00,Acu-Link.com,2014-01-28 16:42:00,
2014-01-28 08:57:00,23.0,18.3,30.03,ESE,112,2.0,-999.0,82,-99.99,,,0.00,Acu-Link.com,2014-01-28 16:57:00,
2014-01-28 09:12:00,23.0,18.3,30.03,SE,135,1.1,-999.0,82,-99.99,,,0.00,Acu-Link.com,2014-01-28 17:12:00,
2014-01-28 09:27:00,23.0,18.9,30.03,SE,135,1.6,-999.0,84,-99.99,,,0.00,Acu-Link.com,2014-01-28 17:27:00,
2014-01-28 09:42:00,23.0,18.9,30.03,ESE,112,3.1,-999.0,84,-99.99,,,0.00,Acu-Link.com,2014-01-28 17:42:00,
2014-01-28 09:57:00,26.6,22.1,30.03,ESE,112,1.6,-999.0,83,-99.99,,,0.00,Acu-Link.com,2014-01-28 17:57:00,
2014-01-28 10:12:00,26.6,21.6,30.02,ENE,67,0.0,-999.0,81,-99.99,,,0.00,Acu-Link.com,2014-01-28 18:12:00,
2014-01-28 10:27:00,26.6,21.0,30.03,SSE,157,1.1,-999.0,79,-99.99,,,0.00,Acu-Link.com,2014-01-28 18:27:00,
2014-01-28 10:42:00,28.4,22.4,30.02,SE,135,1.6,-999.0,78,-99.99,,,0.00,Acu-Link.com,2014-01-28 18:42:00,
2014-01-28 10:57:00,28.4,21.8,30.02,SSW,202,2.7,-999.0,76,-99.99,,,0.00,Acu-Link.com,2014-01-28 18:57:00,
2014-01-28 11:12:00,28.4,22.1,30.01,SSE,157,1.6,-999.0,77,-99.99,,,0.00,Acu-Link.com,2014-01-28 19:12:00,
2014-01-28 11:27:00,30.2,24.2,30.01,ESE,112,1.6,-999.0,78,-99.99,,,0.00,Acu-Link.com,2014-01-28 19:27:00,
2014-01-28 11:43:00,30.2,23.9,30.01,SSE,157,1.6,-999.0,77,-99.99,,,0.00,Acu-Link.com,2014-01-28 19:43:00,
2014-01-28 11:58:00,32.0,24.7,30.01,NW,315,1.6,-999.0,74,-99.99,,,0.00,Acu-Link.com,2014-01-28 19:58:00,
2014-01-28 12:13:00,30.2,23.2,30.01,NW,315,1.6,-999.0,75,-99.99,,,0.00,Acu-Link.com,2014-01-28 20:13:00,
2014-01-28 12:28:00,30.2,24.2,30.00,NE,45,1.6,-999.0,78,-99.99,,,0.00,Acu-Link.com,2014-01-28 20:28:00,
2014-01-28 12:43:00,28.4,23.0,30.00,East,90,0.0,-999.0,80,-99.99,,,0.00,Acu-Link.com,2014-01-28 20:43:00,
2014-01-28 12:58:00,28.4,23.3,30.00,SSW,202,0.0,-999.0,81,-99.99,,,0.00,Acu-Link.com,2014-01-28 20:58:00,
2014-01-28 13:13:00,28.4,23.3,29.99,West,270,1.6,-999.0,81,-99.99,,,0.00,Acu-Link.com,2014-01-28 21:13:00,
2014-01-28 13:28:00,28.4,23.6,29.99,West,270,1.1,-999.0,82,-99.99,,,0.00,Acu-Link.com,2014-01-28 21:28:00,
2014-01-28 13:44:00,30.2,25.1,29.98,South,180,2.0,-999.0,81,-99.99,,,0.00,Acu-Link.com,2014-01-28 21:44:00,
2014-01-28 13:59:00,28.4,23.6,29.98,SSW,202,1.6,-999.0,82,-99.99,,,0.00,Acu-Link.com,2014-01-28 21:59:00,
2014-01-28 14:14:00,28.4,23.6,29.98,WSW,247,1.6,-999.0,82,-99.99,,,0.00,Acu-Link.com,2014-01-28 22:14:00,
2014-01-28 14:29:00,28.4,23.9,29.97,South,180,1.6,-999.0,83,-99.99,,,0.00,Acu-Link.com,2014-01-28 22:29:00,
2014-01-28 14:44:00,28.4,24.2,29.97,WSW,247,0.0,-999.0,84,-99.99,,,0.00,Acu-Link.com,2014-01-28 22:44:00,
2014-01-28 15:00:00,28.4,24.5,29.97,SW,225,0.0,-999.0,85,-99.99,,,0.00,Acu-Link.com,2014-01-28 23:00:00,
2014-01-28 15:15:00,28.4,24.8,29.96,SSE,157,1.6,-999.0,86,-99.99,,,0.00,Acu-Link.com,2014-01-28 23:15:00,
2014-01-28 15:30:00,30.2,26.2,29.97,WSW,247,1.6,-999.0,85,-99.99,,,0.00,Acu-Link.com,2014-01-28 23:30:00,
2014-01-28 15:45:00,28.4,24.5,29.97,South,180,1.6,-999.0,85,-99.99,,,0.00,Acu-Link.com,2014-01-28 23:45:00,
2014-01-28 16:00:00,28.4,24.8,29.97,SW,225,0.0,-999.0,86,-99.99,,,0.00,Acu-Link.com,2014-01-29 00:00:00,
2014-01-28 16:15:00,28.4,25.0,29.98,ENE,67,1.1,-999.0,87,-99.99,,,0.00,Acu-Link.com,2014-01-29 00:15:00,
2014-01-28 16:30:00,28.4,25.0,29.97,SE,135,0.0,-999.0,87,-99.99,,,0.00,Acu-Link.com,2014-01-29 00:30:00,
2014-01-28 16:46:00,26.6,23.5,29.97,East,90,0.0,-999.0,88,-99.99,,,0.00,Acu-Link.com,2014-01-29 00:46:00,
2014-01-28 17:01:00,26.6,23.8,29.96,WSW,247,0.0,-999.0,89,-99.99,,,0.00,Acu-Link.com,2014-01-29 01:01:00,
2014-01-28 17:16:00,26.6,24.1,29.96,South,180,0.0,-999.0,90,-99.99,,,0.00,Acu-Link.com,2014-01-29 01:16:00,
2014-01-28 17:31:00,26.6,24.9,29.97,East,90,0.0,-999.0,93,-99.99,,,0.00,Acu-Link.com,2014-01-29 01:31:00,
2014-01-28 17:46:00,26.6,26.1,29.95,ESE,112,1.1,-999.0,98,-99.99,,,0.00,Acu-Link.com,2014-01-29 01:46:00,
2014-01-28 18:01:00,26.6,26.1,29.96,ESE,112,0.0,-999.0,98,-99.99,,,0.00,Acu-Link.com,2014-01-29 02:01:00,
2014-01-28 18:17:00,26.6,26.1,29.95,ESE,112,0.0,-999.0,98,-99.99,,,0.00,Acu-Link.com,2014-01-29 02:17:00,
2014-01-28 18:32:00,26.6,26.1,29.95,SSE,157,0.0,-999.0,98,-99.99,,,0.00,Acu-Link.com,2014-01-29 02:32:00,
2014-01-28 18:47:00,26.6,26.1,29.95,SE,135,0.0,-999.0,98,-99.99,,,0.00,Acu-Link.com,2014-01-29 02:47:00,
2014-01-28 19:02:00,26.6,25.9,29.94,ESE,112,0.0,-999.0,97,-99.99,,,0.00,Acu-Link.com,2014-01-29 03:02:00,
2014-01-28 19:17:00,26.6,25.4,29.92,ESE,112,0.0,-999.0,95,-99.99,,,0.00,Acu-Link.com,2014-01-29 03:17:00,
2014-01-28 19:32:00,26.6,24.3,29.92,ESE,112,0.0,-999.0,91,-99.99,,,0.00,Acu-Link.com,2014-01-29 03:32:00,
2014-01-28 19:47:00,26.6,24.3,29.92,ESE,112,0.0,-999.0,91,-99.99,,,0.00,Acu-Link.com,2014-01-29 03:47:00,
2014-01-28 20:02:00,24.8,22.6,29.91,ESE,112,0.0,-999.0,91,-99.99,,,0.00,Acu-Link.com,2014-01-29 04:02:00,
2014-01-28 20:18:00,24.8,22.6,29.91,East,90,0.0,-999.0,91,-99.99,,,0.00,Acu-Link.com,2014-01-29 04:18:00,
2014-01-28 20:33:00,24.8,22.6,29.90,ESE,112,0.0,-999.0,91,-99.99,,,0.00,Acu-Link.com,2014-01-29 04:33:00,
2014-01-28 20:48:00,24.8,22.6,29.90,ESE,112,0.0,-999.0,91,-99.99,,,0.00,Acu-Link.com,2014-01-29 04:48:00,
2014-01-28 21:03:00,24.8,22.6,29.89,ESE,112,0.0,-999.0,91,-99.99,,,0.00,Acu-Link.com,2014-01-29 05:03:00,
2014-01-28 21:18:00,24.8,24.3,29.90,East,90,0.0,-999.0,98,-99.99,,,0.00,Acu-Link.com,2014-01-29 05:18:00,
2014-01-28 21:33:00,24.8,24.3,29.90,SW,225,0.0,-999.0,98,-99.99,,,0.00,Acu-Link.com,2014-01-29 05:33:00,
2014-01-28 21:48:00,24.8,24.3,29.89,ESE,112,0.0,-999.0,98,-99.99,,,0.00,Acu-Link.com,2014-01-29 05:48:00,
2014-01-28 22:03:00,24.8,24.3,29.89,SSE,157,0.0,-999.0,98,-99.99,,,0.00,Acu-Link.com,2014-01-29 06:03:00,
2014-01-28 22:19:00,24.8,24.3,29.88,ESE,112,0.0,-999.0,98,-99.99,,,0.00,Acu-Link.com,2014-01-29 06:19:00,
2014-01-28 22:34:00,24.8,24.3,29.87,ESE,112,0.0,-999.0,98,-99.99,,,0.00,Acu-Link.com,2014-01-29 06:34:00,
2014-01-28 22:49:00,24.8,24.3,29.86,SE,135,0.0,-999.0,98,-99.99,,,0.00,Acu-Link.com,2014-01-29 06:49:00,
2014-01-28 23:04:00,24.8,24.3,29.86,SSW,202,0.0,-999.0,98,-99.99,,,0.00,Acu-Link.com,2014-01-29 07:04:00,
2014-01-28 23:19:00,24.8,24.3,29.86,SSE,157,1.1,-999.0,98,-99.99,,,0.00,Acu-Link.com,2014-01-29 07:19:00,
2014-01-28 23:34:00,24.8,24.3,29.85,SSE,157,0.0,-999.0,98,-99.99,,,0.00,Acu-Link.com,2014-01-29 07:34:00,